This is the latest recevied weather packets stored in our database for station/object WI0K. If no packets are shown the sender has not sent any weather packets the latest 10 day(s).
| Time | Temp. | Humidity | Pressure | Rain* | Wind** | Luminosity | Snow |
|---|---|---|---|---|---|---|---|
| 1788623403 | 26.11° C | 34% | 1019.7 hPa | 0 mm | - | 627 W/m² | - |
| 1788623102 | 26.67° C | 34% | 1019.7 hPa | 0 mm | - | 607 W/m² | - |
| 1788622802 | 26.67° C | 35% | 1019.7 hPa | 0 mm | - | 586 W/m² | - |
| 1788622501 | 26.67° C | 38% | 1019.7 hPa | 0 mm | - | 580 W/m² | - |
| 1788622200 | 26.67° C | 35% | 1019.7 hPa | 0 mm | - | 575 W/m² | - |
| 1788621899 | 26.11° C | 38% | 1019.7 hPa | 0 mm | - | 347 W/m² | - |
| 1788621598 | 25.56° C | 38% | 1019.7 hPa | 0 mm | - | 593 W/m² | - |
| 1788621298 | 25.56° C | 39% | 1019.6 hPa | 0 mm | - | 585 W/m² | - |
| 1788620997 | 25° C | 42% | 1019.7 hPa | 0 mm | - | 575 W/m² | - |
| 1788620711 | 24.44° C | 41% | 1019.6 hPa | 0 mm | - | 554 W/m² | - |
| 1788620395 | 24.44° C | 39% | 1019.7 hPa | 0 mm | - | 430 W/m² | - |
| 1788620095 | 24.44° C | 43% | 1019.7 hPa | 0 mm | - | 364 W/m² | - |
| 1788619794 | 23.89° C | 43% | 1019.7 hPa | 0 mm | - | 432 W/m² | - |
| 1788619493 | 23.89° C | 44% | 1019.6 hPa | 0 mm | - | 395 W/m² | - |
| 1788619192 | 23.33° C | 46% | 1019.7 hPa | 0 mm | - | 358 W/m² | - |
| 1788618892 | 23.33° C | 46% | 1019.7 hPa | 0 mm | - | 345 W/m² | - |
| 1788618591 | 23.33° C | 47% | 1019.6 hPa | 0 mm | - | 329 W/m² | - |
| 1788618291 | 22.78° C | 47% | 1019.6 hPa | 0 mm | - | 303 W/m² | - |
| 1788617990 | 22.22° C | 50% | 1019.5 hPa | 0 mm | - | 284 W/m² | - |
| 1788617689 | 22.22° C | 48% | 1019.4 hPa | 0 mm | - | 273 W/m² | - |
| 1788617388 | 21.11° C | 50% | 1019.4 hPa | 0 mm | - | 251 W/m² | - |
| 1788617088 | 21.11° C | 50% | 1019.4 hPa | 0 mm | - | 237 W/m² | - |
| 1788616787 | 21.11° C | 51% | 1019.4 hPa | 0 mm | - | 219 W/m² | - |
| 1788616487 | 20.56° C | 53% | 1019.4 hPa | 0 mm | - | 201 W/m² | - |
| 1788616186 | 20.56° C | 54% | 1019.4 hPa | 0 mm | - | 175 W/m² | - |
* Rain latest hour (hover to see other rain measurements)
** Current wind speed in m/s (hover to see current wind gust speed)